Change the Weather History Date:

Monday, September 2, 2013

  Actual Average Record
Temperature  
Mean Temperature 58 °F -  
Max Temperature 65 °F 61 °F 69 °F (1999)
Min Temperature 51 °F 52 °F 44 °F (2005)
Degree Days  
Heating Degree Days 7    
Growing Degree Days 8 (Base 50)    
Moisture  
Dew Point 53 °F    
Average Humidity 81    
Maximum Humidity 94    
Minimum Humidity 63    
Precipitation  
Precipitation 0.00 in - - ()
Sea Level Pressure  
Sea Level Pressure 30.43 in    
Wind  
Wind Speed 8 mph ()    
Max Wind Speed 12 mph    
Max Gust Speed -    
Visibility 7.5 miles    
Events      
Averages and records for this station are not official NWS values.
T = Trace of Precipitation, MM = Missing Value Source: Averaged Metar Reports

Daily Weather History Graph

Daily Weather History Graph

Search for Another Location

Airport or City:

Trip Planner

Search our weather history database for the weather conditions in past years. The results will help you decide how hot, cold, wet, or windy it might be!

Date:

Astronomy

Sep. 02, 2013 Rise Set
Actual Time 6:37 AM BST 8:02 PM BST
Civil Twilight 6:03 AM BST 8:36 PM BST
Nautical Twilight 5:22 AM BST 9:17 PM BST
Astronomical Twilight 4:38 AM BST 10:01 PM BST
Moon 3:30 AM BST (9/2) 6:16 PM BST (9/2)
Length of Visible Light 14h 32m
Length of Day
13h 25m
Waning Crescent, 9% of the Moon is Illuminated
Sep 2
Waning Crescent
Sep 5
New
Sep 12
First Quarter
Sep 19
Full
Sep 27
Last Quarter

Hourly Weather History & Observations

Time (BST) Temp. Dew Point Humidity Pressure Visibility Wind Dir Wind Speed Gust Speed Precip Events Conditions
12:50 AM 55 °F 52 °F 88% 30.47 in 12 mi WNW 10.4 mph - -   Scattered Clouds
12:50 AM 55.4 °F 51.8 °F 88% 30.45 in 6.2 mi WNW 10.4 mph - N/A   Partly Cloudy
1:50 AM 55.4 °F 51.8 °F 88% 30.45 in 6.2 mi WNW 8.1 mph - N/A   Scattered Clouds
2:50 AM 55.4 °F 51.8 °F 88% 30.42 in 6.2 mi WNW 6.9 mph - N/A   Partly Cloudy
3:50 AM 55 °F 52 °F 87% 30.43 in 9 mi WNW 10.4 mph - -   Haze
3:50 AM 55.4 °F 51.8 °F 88% 30.42 in 6.2 mi WNW 10.4 mph - N/A   Partly Cloudy
4:50 AM 55.4 °F 51.8 °F 88% 30.42 in 6.2 mi WNW 6.9 mph - N/A   Scattered Clouds
5:50 AM 55.4 °F 51.8 °F 88% 30.42 in 6.2 mi WNW 5.8 mph - N/A   Scattered Clouds
6:50 AM 55 °F 52 °F 86% 30.43 in 9 mi WNW 6.9 mph - -   Haze
6:50 AM 55.4 °F 51.8 °F 88% 30.42 in 6.2 mi WNW 6.9 mph - N/A   Mostly Cloudy
7:50 AM 57.2 °F 53.6 °F 88% 30.42 in 6.2 mi WNW 5.8 mph - N/A   Haze
8:50 AM 59.0 °F 53.6 °F 82% 30.42 in 6.2 mi NNW 11.5 mph - N/A   Mostly Cloudy
9:50 AM 60 °F 54 °F 74% 30.46 in 12 mi NNW 10.4 mph - -   Mostly Cloudy
9:50 AM 60.8 °F 53.6 °F 77% 30.45 in 6.2 mi NNW 10.4 mph - N/A   Mostly Cloudy
10:50 AM 60.8 °F 53.6 °F 77% 30.45 in 6.2 mi NNW 10.4 mph - N/A   Mostly Cloudy
11:50 AM 62.6 °F 55.4 °F 77% 30.45 in 6.2 mi NNW 6.9 mph - N/A   Scattered Clouds
12:50 PM 64 °F 56 °F 67% 30.44 in 16 mi NNW 8.1 mph - -   Scattered Clouds
12:50 PM 64.4 °F 55.4 °F 73% 30.42 in 6.2 mi NNW 8.1 mph - N/A   Partly Cloudy
1:50 PM 64.4 °F 55.4 °F 73% 30.42 in 6.2 mi NNW 8.1 mph - N/A   Partly Cloudy
2:50 PM 64.4 °F 55.4 °F 73% 30.42 in 6.2 mi NNW 6.9 mph - N/A   Partly Cloudy
3:50 PM 65 °F 55 °F 63% 30.43 in 16 mi NNW 8.1 mph - -   Scattered Clouds
3:50 PM 66.2 °F 55.4 °F 68% 30.42 in 6.2 mi NNW 8.1 mph - N/A   Partly Cloudy
4:50 PM 64.4 °F 55.4 °F 73% 30.42 in 6.2 mi NW 8.1 mph - N/A   Partly Cloudy
5:50 PM 62.6 °F 55.4 °F 77% 30.42 in 6.2 mi NW 8.1 mph - N/A   Scattered Clouds
6:50 PM 61 °F 54 °F 72% 30.41 in 9 mi North 6.9 mph - -   Haze
6:50 PM 60.8 °F 53.6 °F 77% 30.39 in 6.2 mi North 6.9 mph - N/A   Scattered Clouds
7:50 PM 59.0 °F 53.6 °F 82% 30.39 in 6.2 mi North 6.9 mph - N/A   Scattered Clouds
8:50 PM 55.4 °F 51.8 °F 88% 30.42 in 6.2 mi North 5.8 mph - N/A   Partly Cloudy
9:50 PM 51.8 °F 50.0 °F 94% 30.42 in 6.2 mi NE 5.8 mph - N/A   Partly Cloudy
10:50 PM 51.8 °F 50.0 °F 94% 30.42 in 6.2 mi NNE 6.9 mph - N/A   Scattered Clouds
11:50 PM 53.6 °F 51.8 °F 94% 30.39 in 6.2 mi NNE 9.2 mph - N/A   Partly Cloudy